Location: Moscow Pond
(43.6842°N, 73.2366°W)
Time: 20:09:30
(UTC+00:00)

Cosmos 1943 Rocket - Pass Details

Date: 08 November 2025
Orbit: 812 x 841 km, 71.0° (Epoch: 10 December)

Event Time Altitude Azimuth Distance (km) Brightness Sun altitude
Exits shadow 09:10:58 13° 351° (N) 2,236 4.3 -26.8°
Maximum altitude 09:15:34 38° 57° (ENE) 1,229 3.4 -26.0°
Drops below altitude 10° 09:20:39 10° 125° (SE) 2,398 5.3 -25.1°
Sets 09:23:13 0° 133° (SE) 3,324 6.0 -24.6°
